Regional Weather Roundup
Issued by NWS

Home | Current Version | Previous Version | Text Only | Print | Product List | Glossary On
Versions: 1 2 3 4 5 6 7 8 9 10 11 12 13 14 15 16 17 18 19 20 21 22 23 24 25 26 27
000
ASUS44 KBMX 210710
RWRAL

ALABAMA REGIONAL WEATHER ROUNDUP
NATIONAL WEATHER SERVICE BIRMINGHAM AL
100 AM CST WED FEB 21 2018

NOTE: "FAIR" INDICATES FEW OR NO CLOUDS BELOW 12,000 FEET
WITH NO SIGNIFICANT WEATHER AND/OR OBSTRUCTIONS TO VISIBILITY.

THE REMARK "TC" DENOTES TEMPERATURE IN DEGREES CELSIUS.

ALZ001>011-014-016>018-020-210800-
NORTH ALABAMA

CITY           SKY/WX    TMP DP  RH WIND       PRES   REMARKS
MUSCLE SHOALS  FAIR      70  61  73 S10       30.23S
HUNTSVILLE     CLOUDY    70  66  87 S8        30.27R
DECATUR        CLOUDY    67  64  90 SE9       30.26S
HALEYVILLE     CLOUDY    67  65  93 S10       30.28S
GADSDEN        CLOUDY    70  67  90 S10       30.31S
$$

ALZ012-013-022-023-030>036-040>044-210800-
WEST CENTRAL ALABAMA

CITY           SKY/WX    TMP DP  RH WIND       PRES   REMARKS
TUSCALOOSA     LGT RAIN  69  69 100 S8        30.27S
DEMOPOLIS        N/A     69  69  99 SE6       30.26R
$$

ALZ015-024>026-033>036-041>044-210800-
CENTRAL ALABAMA

CITY           SKY/WX    TMP DP  RH WIND       PRES   REMARKS
BIRMINGHAM     CLOUDY    70  65  84 S10       30.32R
MONTGOMERY     MOCLDY    66  65  96 SE3       30.31R
SHELBY CO ARPT CLOUDY    70  67  90 S9        30.30R
MAXWELL AFB    CLOUDY    67  65  95 S3        30.30R
GREENVILLE     MOCLDY    68  64  87 CALM      30.30R
SELMA          FAIR      68  64  88 SE6       30.29R
PRATTVILLE     CLOUDY    62  62 100 CALM      30.30R FOG
BESSEMER       CLOUDY    69  66  90 VRB7G18   30.30S
TALLADEGA      FAIR      69  66  90 S5        30.32S
PELL CITY      PTSUNNY   72  68  88 S6        30.31S
MARION         FAIR      69  67  95 S13       30.27S
SYLACAUGA      FAIR      71  68  90 S9        30.32R
$$

ALZ019-021-028-029-037-038-045>048-210800-
EAST CENTRAL ALABAMA

CITY           SKY/WX    TMP DP  RH WIND       PRES   REMARKS
ANNISTON       MOCLDY    69  65  86 S3        30.32S
ALEXANDER CITY CLOUDY    67  67 100 CALM      30.33S
AUBURN         MOCLDY    67  65  93 SE3       30.35S
$$

ALZ051>064-210800-
SOUTHWEST ALABAMA

CITY           SKY/WX    TMP DP  RH WIND       PRES   REMARKS
MOBILE         CLOUDY    72  70  93 SE7       30.27R
BROOKLEY FIELD CLOUDY    70  69  97 S5        30.27R
EVERGREEN      CLOUDY    72  67  84 SE7       30.30
$$

ALZ049-050-065>069-210800-
SOUTHEAST ALABAMA

CITY           SKY/WX    TMP DP  RH WIND       PRES   REMARKS
DOTHAN         MOCLDY    69  65  86 E7        30.36R
OZARK          FAIR      68  66  94 SE3       30.32R
TROY           CLOUDY    68  66  93 SE5       30.32S
EUFAULA        MOCLDY    68  67  96 E3        30.33R
$$




USA.gov is the U.S. government's official web portal to all federal, state and local government web resources and services.